Location: Bégole
(43.1574°N, 0.3291°E)
Time: 00:58:02
(UTC+00:00)

deb Delta 89 - Pass Details

Date: 29 February 2024
Orbit: 714 x 2021 km, 97.5° (Epoch: 13 April)

Event Time Altitude Azimuth Distance (km) Brightness Sun altitude
Rises 03:28:29 0° 9° (N) 5,484 ? -34.3°
Reaches altitude 10° 03:31:55 10° 5° (N) 4,479 ? -33.8°
Maximum altitude 03:42:36 51° 295° (WNW) 2,275 ? -32.0°
Enters shadow 03:43:03 51° 288° (WNW) 2,270 ? -31.9°
